ZL1TQN Weather Reports


Display with metric or nautical units.
time (UTC)temp
F
wind
direction
speed
MPH
gust
MPH
rain 1hr
in
rain 24hr
in
rain mn
in
humidity
%
barometer
mb
20260509084004 57 233 0.0 0.0 0.00 0.51 0.40 85 1003.6
20260509083504 57 174 0.0 0.0 0.00 0.51 0.40 85 1003.6
20260509083006 57 165 0.0 0.0 0.00 0.51 0.40 85 1003.6
20260509082506 58 133 0.0 0.0 0.00 0.51 0.40 85 1003.6
20260509082006 58 158 0.0 0.0 0.00 0.51 0.40 84 1003.6
20260509081006 58 185 0.0 0.0 0.00 0.51 0.40 84 1003.6
20260509080006 58 221 0.0 0.0 0.00 0.51 0.40 85 1003.6
20260509075506 58 204 0.0 0.0 0.00 0.51 0.40 85 1003.6
20260509075006 58 185 0.0 0.0 0.00 0.51 0.40 84 1003.6
20260509074506 58 222 0.0 0.0 0.00 0.51 0.40 84 1003.6
20260509074006 58 223 0.0 0.0 0.00 0.51 0.40 84 1003.6
20260509072506 58 253 0.0 1.0 0.00 0.51 0.40 84 1003.5
20260509072006 59 268 0.0 2.0 0.00 0.51 0.40 83 1003.6
20260509071006 59 226 0.0 3.0 0.00 0.51 0.40 82 1003.6
20260509070006 59 266 2.0 5.0 0.00 0.51 0.40 82 1003.5
20260509065506 59 303 2.0 5.0 0.00 0.51 0.40 82 1003.5
20260509065006 59 266 2.0 5.0 0.00 0.51 0.40 82 1003.4
20260509064506 59 253 2.0 3.0 0.00 0.51 0.40 82 1003.2
20260509064006 59 244 0.0 2.0 0.00 0.51 0.40 82 1003.1
20260509063506 60 281 0.0 3.0 0.00 0.51 0.40 82 1003.1
20260509062006 60 273 2.0 3.0 0.00 0.51 0.40 82 1003.1
20260509061006 60 291 1.0 5.0 0.00 0.51 0.40 81 1003.0
20260509060005 61 272 2.0 5.0 0.00 0.51 0.40 80 1003.0
20260509054505 61 313 0.0 3.0 0.00 0.51 0.40 80 1003.0
20260509054006 61 279 1.0 3.0 0.00 0.51 0.40 79 1003.0
20260509053506 62 297 1.0 5.0 0.00 0.51 0.40 79 1003.1
20260509053006 62 272 2.0 5.0 0.00 0.51 0.40 79 1003.1
20260509052505 62 283 1.0 3.0 0.00 0.51 0.40 79 1003.0
20260509051506 62 302 0.0 3.0 0.00 0.51 0.40 79 1003.0
20260509045505 63 285 2.0 9.0 0.00 0.51 0.40 78 1003.0
20260509045006 63 280 4.0 9.0 0.00 0.51 0.40 78 1003.0
20260509044505 63 287 3.0 8.0 0.00 0.51 0.40 77 1003.0
20260509044006 63 280 4.0 12.0 0.00 0.51 0.40 76 1003.0
20260509042505 64 279 3.0 7.0 0.00 0.51 0.40 76 1003.0
20260509041506 64 291 3.0 10.0 0.00 0.51 0.40 75 1003.0
20260509041005 64 276 4.0 10.0 0.00 0.51 0.40 74 1003.0
20260509040006 64 290 3.0 10.0 0.00 0.51 0.40 73 1003.0
20260509035506 65 273 2.0 10.0 0.00 0.51 0.40 73 1003.1
20260509035006 65 292 3.0 9.0 0.00 0.51 0.40 72 1003.3
20260509034505 66 278 2.0 6.0 0.00 0.51 0.40 72 1003.4
20260509034005 66 301 2.0 6.0 0.00 0.51 0.40 71 1003.5
20260509033505 67 297 3.0 9.0 0.00 0.51 0.40 70 1003.4
20260509033006 67 282 3.0 12.0 0.00 0.51 0.40 70 1003.4
20260509032506 67 273 5.0 12.0 0.00 0.51 0.40 68 1003.3
20260509032005 67 288 5.0 12.0 0.00 0.51 0.40 69 1003.4
20260509031506 67 316 4.0 13.0 0.00 0.51 0.40 68 1003.3
20260509031006 67 290 5.0 13.0 0.00 0.51 0.40 68 1003.3
20260509030006 67 287 2.0 13.0 0.00 0.51 0.40 69 1003.3
20260509025505 67 292 4.0 13.0 0.00 0.51 0.40 69 1003.2
20260509025006 67 262 5.0 17.0 0.00 0.51 0.40 70 1003.2
20260509024506 67 294 5.0 17.0 0.00 0.51 0.40 70 1003.3
20260509024005 67 287 7.0 13.0 0.00 0.51 0.40 68 1003.3
20260509023505 67 252 6.0 13.0 0.00 0.51 0.40 68 1003.5
20260509023005 67 280 6.0 12.0 0.00 0.51 0.40 67 1003.5
20260509022506 67 274 4.0 12.0 0.00 0.51 0.40 70 1003.6
20260509021505 67 315 5.0 14.0 0.00 0.51 0.40 72 1003.6
20260509021006 67 288 4.0 14.0 0.00 0.51 0.40 71 1003.7
20260509020005 66 269 5.0 12.0 0.00 0.51 0.40 73 1003.8
20260509015506 66 275 3.0 14.0 0.00 0.51 0.40 74 1003.8
20260509014506 65 276 7.0 14.0 0.00 0.51 0.40 72 1003.9
20260509014006 65 270 6.0 13.0 0.00 0.51 0.40 74 1003.8
20260509013505 66 291 5.0 12.0 0.00 0.51 0.40 74 1003.9
20260509012505 66 269 6.0 13.0 0.00 0.51 0.40 73 1004.0
20260509012005 65 323 6.0 15.0 0.00 0.51 0.40 74 1004.0
20260509011505 66 299 6.0 15.0 0.00 0.51 0.40 73 1004.0
20260509011006 66 287 5.0 13.0 0.00 0.51 0.40 75 1004.0
20260509010005 66 281 5.0 12.0 0.00 0.51 0.40 73 1004.1
20260509005505 66 304 4.0 12.0 0.00 0.51 0.40 74 1004.2
20260509005006 66 320 5.0 17.0 0.00 0.51 0.40 75 1004.4
20260509004506 65 270 6.0 17.0 0.00 0.51 0.40 74 1004.5
20260509004006 65 285 7.0 12.0 0.00 0.51 0.40 73 1004.5
20260509003506 65 281 5.0 12.0 0.00 0.51 0.40 73 1004.5
20260509003006 65 294 4.0 12.0 0.00 0.51 0.40 72 1004.6
20260509002505 65 295 3.0 13.0 0.00 0.51 0.40 75 1004.6
20260509002005 66 293 5.0 13.0 0.00 0.51 0.40 72 1004.9
20260509001506 66 290 6.0 13.0 0.00 0.51 0.40 72 1005.0
20260509001006 66 279 5.0 13.0 0.00 0.51 0.40 74 1005.0
20260509000005 66 294 5.0 14.0 0.00 0.51 0.40 77 1005.2
20260508235505 66 309 7.0 14.0 0.00 0.51 0.40 78 1005.3
20260508235005 66 276 6.0 12.0 0.00 0.51 0.40 78 1005.4
20260508234005 65 316 5.0 12.0 0.00 0.51 0.40 80 1005.5
20260508233506 65 296 3.0 12.0 0.00 0.51 0.40 82 1005.6
20260508232006 65 338 3.0 10.0 0.00 0.51 0.40 83 1005.9
20260508231505 65 292 3.0 10.0 0.00 0.51 0.40 81 1005.9
20260508231006 66 330 2.0 12.0 0.00 0.51 0.40 83 1005.9
20260508230005 65 297 3.0 12.0 0.00 0.51 0.40 84 1006.0
20260508225505 64 295 4.0 9.0 0.00 0.51 0.40 83 1006.1
20260508225005 64 307 4.0 9.0 0.00 0.51 0.40 84 1006.1
20260508224505 64 293 4.0 7.0 0.00 0.51 0.40 85 1006.1
20260508224005 63 328 2.0 7.0 0.00 0.51 0.40 86 1006.2
20260508223506 63 280 2.0 5.0 0.00 0.51 0.40 88 1006.2
20260508223005 63 313 2.0 5.0 0.00 0.51 0.40 86 1006.2
20260508222505 63 306 2.0 6.0 0.00 0.54 0.40 88 1006.4
20260508222005 63 300 3.0 6.0 0.00 0.54 0.40 87 1006.4
20260508221506 62 310 2.0 6.0 0.00 0.54 0.40 88 1006.5
20260508221005 62 303 2.0 6.0 0.00 0.54 0.40 89 1006.6
20260508220005 63 347 1.0 3.0 0.00 0.54 0.40 90 1006.6
20260508215505 62 28 2.0 3.0 0.00 0.54 0.40 90 1006.6
20260508215005 62 3 1.0 3.0 0.00 0.54 0.40 90 1006.6
20260508214505 63 356 1.0 3.0 0.00 0.54 0.40 90 1006.6
20260508214005 62 20 0.0 3.0 0.00 0.54 0.40 92 1006.6
20260508213505 62 0 2.0 3.0 0.00 0.54 0.40 90 1006.6
20260508213005 62 8 1.0 2.0 0.00 0.54 0.40 93 1006.6
20260508212505 62 347 1.0 2.0 0.00 0.54 0.40 94 1006.6
20260508212006 61 109 0.0 2.0 0.00 0.54 0.40 95 1006.6
20260508211505 61 140 0.0 2.0 0.00 0.54 0.40 95 1006.6
20260508211005 61 165 1.0 2.0 0.00 0.54 0.40 95 1006.7
20260508210005 60 96 1.0 3.0 0.00 0.54 0.40 95 1006.7
20260508205505 60 357 1.0 3.0 0.00 0.54 0.40 96 1006.8
20260508205005 60 26 2.0 3.0 0.00 0.54 0.40 96 1006.7
20260508204505 60 3 0.0 3.0 0.00 0.54 0.40 96 1006.7
20260508204005 59 10 2.0 3.0 0.00 0.54 0.40 96 1006.7
20260508203505 59 36 0.0 1.0 0.00 0.54 0.40 96 1006.7
20260508203005 58 159 0.0 1.0 0.00 0.54 0.40 97 1006.7
20260508202505 58 158 0.0 1.0 0.00 0.54 0.40 97 1006.7
20260508202005 57 159 0.0 2.0 0.00 0.54 0.40 96 1006.7
20260508200005 56 165 1.0 2.0 0.01 0.54 0.40 96 1006.6
20260508195505 56 170 1.0 2.0 0.01 0.54 0.40 96 1006.6
20260508195005 55 187 1.0 2.0 0.01 0.54 0.40 96 1006.6
20260508193505 55 146 1.0 3.0 0.01 0.54 0.40 95 1006.6
20260508193005 55 118 1.0 3.0 0.01 0.54 0.40 95 1006.6
20260508192506 55 153 2.0 3.0 0.01 0.54 0.40 95 1006.6
20260508192005 56 162 2.0 3.0 0.01 0.54 0.40 95 1006.6
20260508191505 56 237 0.0 0.0 0.01 0.54 0.40 96 1006.5
20260508190005 56 315 0.0 0.0 0.00 0.53 0.39 95 1006.3
20260508185505 56 212 0.0 0.0 0.00 0.53 0.39 95 1006.2
20260508184505 57 213 0.0 0.0 0.00 0.53 0.39 95 1006.3
20260508184005 57 285 0.0 0.0 0.00 0.53 0.39 95 1006.3
20260508183505 57 291 0.0 0.0 0.00 0.53 0.39 95 1006.5
20260508183005 57 294 0.0 0.0 0.00 0.53 0.39 95 1006.5
20260508182505 57 248 0.0 1.0 0.00 0.53 0.39 95 1006.4
20260508182006 58 287 0.0 1.0 0.00 0.53 0.39 95 1006.2
20260508181505 58 6 0.0 1.0 0.00 0.53 0.39 95 1006.3
20260508181005 58 6 0.0 1.0 0.00 0.53 0.39 95 1006.3
20260508175505 58 6 0.0 1.0 0.00 0.53 0.39 95 1006.3
20260508174505 58 6 0.0 1.0 0.00 0.53 0.39 95 1006.2
20260508174005 58 6 0.0 1.0 0.00 0.53 0.39 95 1006.3
20260508173505 58 6 0.0 2.0 0.00 0.53 0.39 95 1006.3
20260508173006 58 6 0.0 2.0 0.00 0.53 0.39 95 1006.2
20260508172505 58 8 1.0 2.0 0.00 0.53 0.39 95 1006.2
20260508171505 58 196 0.0 0.0 0.00 0.53 0.39 95 1006.1
20260508171005 58 196 0.0 0.0 0.00 0.53 0.39 95 1006.1
20260508170005 59 196 0.0 0.0 0.00 0.53 0.39 95 1005.7
20260508165505 59 196 0.0 0.0 0.00 0.53 0.39 95 1005.8
20260508165005 59 196 0.0 0.0 0.00 0.53 0.39 95 1005.8
20260508164505 59 214 0.0 0.0 0.01 0.53 0.39 95 1005.7
20260508164005 59 273 0.0 0.0 0.01 0.53 0.39 95 1005.7
20260508163505 59 273 0.0 0.0 0.02 0.53 0.39 95 1005.9
20260508161505 59 201 0.0 0.0 0.10 0.54 0.39 94 1005.7
20260508161005 59 245 0.0 0.0 0.11 0.57 0.39 94 1005.9
20260508160005 59 246 0.0 3.0 0.13 0.58 0.39 94 1006.1
20260508155505 59 264 2.0 3.0 0.14 0.58 0.39 94 1006.2
20260508155005 59 264 1.0 6.0 0.21 0.58 0.39 94 1006.4
20260508154505 59 268 2.0 6.0 0.27 0.57 0.39 94 1006.6
20260508154005 59 254 4.0 6.0 0.27 0.57 0.39 94 1006.6
20260508153505 60 305 2.0 6.0 0.25 0.56 0.37 94 1006.7
20260508153005 60 286 2.0 7.0 0.19 0.50 0.31 93 1006.7
20260508152005 60 257 3.0 14.0 0.18 0.48 0.29 93 1006.6
20260508151505 60 276 3.0 14.0 0.19 0.48 0.29 93 1006.6
20260508151005 61 256 6.0 13.0 0.18 0.47 0.28 93 1006.6
20260508145505 63 282 6.0 21.0 0.17 0.44 0.25 94 1006.4
20260508145005 64 299 7.0 21.0 0.10 0.37 0.18 95 1006.2
20260508144505 64 349 8.0 21.0 0.04 0.31 0.12 95 1006.1
20260508144004 64 353 6.0 20.0 0.05 0.31 0.12 95 1006.1
20260508143505 64 10 8.0 20.0 0.05 0.31 0.12 95 1006.1
20260508143005 64 353 6.0 16.0 0.06 0.31 0.12 95 1006.1
20260508142505 64 351 7.0 16.0 0.07 0.30 0.11 95 1006.2
20260508142005 64 354 6.0 16.0 0.07 0.30 0.11 95 1006.5
20260508141505 64 2 8.0 15.0 0.07 0.29 0.10 95 1006.6
20260508141005 64 350 7.0 17.0 0.07 0.29 0.10 95 1006.7
20260508140006 64 357 7.0 17.0 0.06 0.28 0.09 95 1006.7
20260508135005 64 7 6.0 24.0 0.06 0.27 0.08 94 1007.1
20260508134505 64 4 7.0 24.0 0.06 0.27 0.08 94 1007.1
20260508134005 64 357 5.0 24.0 0.06 0.26 0.07 94 1007.2
20260508133505 64 356 5.0 17.0 0.06 0.26 0.07 94 1007.4
20260508133005 64 354 4.0 17.0 0.06 0.24 0.06 94 1007.6
20260508132505 64 356 7.0 17.0 0.04 0.23 0.04 93 1007.5
20260508131005 64 3 7.0 20.0 0.03 0.22 0.03 93 1007.6
20260508130005 64 353 5.0 16.0 0.03 0.22 0.03 93 1007.7
20260508125507 64 6 7.0 13.0 0.13 0.22 0.03 93 1007.7
20260508125005 64 8 5.0 13.0 0.12 0.21 0.02 93 1007.8
20260508124505 64 356 6.0 15.0 0.12 0.21 0.02 93 1008.0
20260508124005 64 16 3.0 15.0 0.10 0.20 0.01 93 1008.1
20260508123505 64 1 7.0 14.0 0.10 0.20 0.01 92 1008.1
20260508123005 64 5 5.0 12.0 0.09 0.19 0.00 92 1008.3
20260508122504 64 0 4.0 12.0 0.09 0.19 0.00 92 1008.4
20260508122005 64 12 5.0 12.0 0.09 0.19 0.00 92 1008.6
20260508121505 64 348 2.0 12.0 0.09 0.19 0.00 91 1008.7
20260508121005 64 1 4.0 12.0 0.00 0.19 0.09 91 1008.7
20260508120005 64 346 4.0 12.0 0.00 0.12 0.00 91 1008.8
20260508115504 64 356 5.0 12.0 0.00 0.12 0.09 90 1009.0
20260508115004 64 8 5.0 12.0 0.00 0.12 0.09 90 1009.2
20260508114505 64 334 4.0 12.0 0.00 0.12 0.09 90 1009.2
20260508114004 64 12 6.0 12.0 0.00 0.12 0.09 90 1009.2
20260508113505 64 346 4.0 15.0 0.00 0.12 0.09 90 1009.4
20260508113005 64 345 5.0 15.0 0.00 0.12 0.09 90 1009.6
20260508112505 64 6 3.0 16.0 0.00 0.12 0.09 90 1009.7
20260508111505 64 8 5.0 13.0 0.00 0.12 0.09 90 1009.7
20260508111005 64 8 7.0 16.0 0.00 0.12 0.09 90 1009.7
20260508110005 64 22 6.0 21.0 0.00 0.12 0.09 91 1009.8
20260508105005 64 355 7.0 15.0 0.00 0.12 0.09 91 1010.3
20260508104505 64 352 6.0 15.0 0.00 0.12 0.09 92 1010.3
20260508104005 64 1 6.0 14.0 0.00 0.12 0.09 92 1010.6
20260508103505 64 340 3.0 12.0 0.00 0.12 0.09 92 1010.6
20260508103006 64 3 5.0 12.0 0.00 0.12 0.09 92 1010.7
20260508102504 64 8 5.0 12.0 0.00 0.12 0.09 92 1010.7
20260508102005 64 352 4.0 12.0 0.00 0.12 0.09 92 1010.8
20260508101005 64 10 5.0 16.0 0.00 0.12 0.09 92 1010.8
20260508095505 64 6 7.0 17.0 0.01 0.12 0.09 92 1011.2
20260508095005 64 5 6.0 17.0 0.01 0.12 0.09 92 1011.2
20260508093505 64 351 5.0 15.0 0.02 0.12 0.09 91 1011.3
20260508092505 63 354 5.0 15.0 0.02 0.12 0.09 92 1011.4
20260508091505 63 355 5.0 14.0 0.02 0.12 0.09 92 1011.4
20260508091005 63 20 4.0 14.0 0.02 0.12 0.09 92 1011.5
20260508085504 63 343 6.0 12.0 0.01 0.11 0.09 92 1011.8
20260508085004 64 351 3.0 9.0 0.01 0.11 0.09 91 1011.8
20260508084505 64 341 4.0 15.0 0.01 0.11 0.09 91 1011.8